Flag for Vietnam Weather past 2 weeks in Da Nang, Vietnam

77 °F

Passing clouds.

Feels Like: 78 °F
Forecast: 75 / 83 °F
Wind: 5 mph from Northwest

Location: Da Nang Airport

Current Time: Nov 30, 2015 at 5:29:14 AM

Latest Report: Nov 30, 2015 at 4:30 AM

Visibility: 4 mi

Pressure: 30.01 "Hg

Humidity: 89%

Dew point: 73 °F

Location of Da NangLocation

Historic Weather in Da Nang — Graph


Da Nang temperature yesterday

Maximum temperature yesterday: 86 °F (at 12:00 PM)
Minimum temperature yesterday: 73 °F (at 2:00 AM)
Average temperature yesterday: 80 °F

Past Weeks' High & Low Weather Summary

High91 °F (Nov 17, 11:00 AM)100% (Nov 15, 4:30 AM)30.12 "Hg (Nov 15, 4:30 AM)
Low73 °F (Nov 21, 11:30 PM)56% (Nov 18, 12:00 PM)29.83 "Hg (Nov 15, 2:30 PM)
Average81 °F82%29.96 "Hg
* Reported Nov 15 3:00 AM — Nov 30 3:30 AM, Da Nang, Weather by CustomWeather, © 2015

Note: Actual official high and low records may vary slightly from our data, if they occured in-between our weather recording intervals... More about our weather records


Da Nang weather history for previous 24 hours

Time TempWeatherWind HumidityBarometerVisibility
3:30 AM
Mon, Nov 30
77 °FPassing clouds.3 mph89%30.01 "Hg4 mi
3:00 AM75 °FPassing clouds.3 mph94%30.01 "Hg4 mi
2:30 AM75 °FPassing clouds.2 mph94%30.01 "Hg4 mi
2:00 AM75 °FPassing clouds.3 mph94%30.04 "Hg4 mi
1:30 AM75 °FPassing clouds.2 mph94%30.04 "Hg4 mi
1:00 AM77 °FPassing clouds.3 mph89%30.04 "Hg4 mi
12:30 AM77 °FPassing clouds.3 mph89%30.04 "Hg4 mi
12:00 AM77 °FPassing clouds.1 mph89%30.07 "Hg4 mi
11:30 PM
Sun, Nov 29
79 °FPassing clouds.1 mph84%30.07 "Hg4 mi
11:00 PM79 °FPassing clouds.3 mph84%30.07 "Hg4 mi
10:30 PM81 °FPassing clouds.6 mph79%30.07 "Hg4 mi
10:00 PM81 °FPassing clouds.6 mph79%30.07 "Hg4 mi
9:30 PM81 °FPassing clouds.6 mph79%30.07 "Hg4 mi
9:00 PM81 °FPassing clouds.5 mph79%30.07 "Hg4 mi
8:30 PM81 °FPassing clouds.6 mph79%30.07 "Hg4 mi
8:00 PM81 °FPassing clouds.5 mph79%30.07 "Hg4 mi
7:30 PM81 °FPassing clouds.6 mph79%30.07 "Hg4 mi
7:00 PM81 °FPassing clouds.7 mph79%30.07 "Hg4 mi
6:30 PM81 °FPassing clouds.7 mph79%30.04 "Hg4 mi
6:00 PM81 °FPassing clouds.7 mph79%30.04 "Hg4 mi
5:30 PM81 °FPassing clouds.7 mph79%30.04 "Hg4 mi
5:00 PM81 °FScattered clouds.8 mph79%30.01 "Hg4 mi
4:30 PM82 °FScattered clouds.9 mph79%30.01 "Hg4 mi
4:00 PM82 °FScattered clouds.10 mph79%30.01 "Hg4 mi
3:30 PM82 °FScattered clouds.9 mph79%30.01 "Hg4 mi
3:00 PM82 °FScattered clouds.9 mph79%30.01 "Hg4 mi
1:30 PM84 °FScattered clouds.8 mph74%30.01 "Hg4 mi
1:00 PM84 °FScattered clouds.8 mph74%30.04 "Hg4 mi
12:00 PM86 °FScattered clouds.8 mph75%30.07 "Hg4 mi
11:30 AM84 °FScattered clouds.6 mph74%30.07 "Hg4 mi
11:00 AM81 °FLight rain. Broken clouds.3 mph84%30.09 "Hg4 mi
10:30 AM84 °FBroken clouds.6 mph74%30.09 "Hg4 mi
10:00 AM84 °FBroken clouds.6 mph74%30.09 "Hg4 mi
9:30 AM84 °FBroken clouds.7 mph74%30.09 "Hg4 mi
9:00 AM82 °FBroken clouds.5 mph74%30.09 "Hg4 mi
8:30 AM82 °FFog.2 mph79%30.09 "Hg3 mi
8:00 AM82 °FFog.3 mph84%30.09 "Hg3 mi
7:30 AM79 °FFog.3 mph89%30.09 "Hg3 mi
7:00 AM77 °FFog.2 mph89%30.09 "Hg3 mi
6:30 AM75 °FFog.3 mph94%30.07 "Hg2 mi
6:00 AM75 °FFog.1 mph94%30.07 "Hg2 mi
5:00 AM73 °FFog.1 mph100%30.07 "Hg2 mi
Weather by CustomWeather, © 2015

See weather overviewHow to use our weather pages